Find Starlink 3542

NORAD ID: 51852 Int'l Des: 2022-022 Owner: SPXS Country: US Constellation: starlink operational
LEOCIRCULAR

現在のビュー

3D地球を読み込み中...

About Starlink 3542

Starlink 3542 (NORAD 51852) is a starlink constellation satellite (v1.5) launched Mar 3, 2022 by SPXS of US. It operates in LEO, CIRCULAR orbit with a mass of 297.00 kg.

Starlink 3542について

説明を読み込み中...

次回通過

Passes for default location (London). Set your location on the main map for personalized predictions.

高度履歴

Loading altitude history...

軌道要素

1 51852U 22022A 26172.71583147 .00093941 00000-0 57012-2 0 9996
2 51852 53.1603 271.9927 0001494 91.6694 268.4469 15.09734893237461
Epoch: Jun 21, 2026 • Age: 42 hours

現在のステータス

高度 537.9 km
速度 7.60 km/s
衛星直下点 35.92°N, 26.23°W
打ち上げ日 Mar 3, 2022
運用期間 4.3 years
タイプ internet

技術仕様

分類 Payload
質量 297.00 kg
乾燥質量 275.00 kg
総質量 297.00 kg
長さ 0.20 m
直径 2.80 m
スパン 9.00 m
形状 Box + pan
製造者 SPXS
バスタイプ Starlink
フェーズステータス In Orbit
所有者/国 SPXS/US

Most Searched